Location: Bremen
(53.0793°N, 8.8017°E)
Time: 19:33:07
(UTC+01:00)

ISS - Visible Passes

Search period start: 09 November 2025 00:00
Search period end: 19 November 2025 00:00
Orbit: 415 x 421 km, 51.6° (Epoch: 08 November)

Date Brightness Start Highest point End Pass type
(mag) Time Alt. Az. Time Alt. Az. Time Alt. Az.
14 Nov -1.4 19:01:29 10° SSW 19:02:36 17° SSW 19:02:36 17° SSW visible
15 Nov -2.0 18:14:00 10° SSW 18:16:25 18° SE 18:16:38 18° SE visible
15 Nov -0.5 19:49:26 10° WSW 19:49:34 11° WSW 19:49:34 11° WSW visible
16 Nov -1.4 17:26:54 10° S 17:28:34 13° SE 17:30:13 10° ESE visible
16 Nov -2.1 19:01:31 10° SW 19:03:30 29° SSW 19:03:30 29° SSW visible
17 Nov -2.7 18:13:40 10° SW 18:16:42 32° SSE 18:17:22 29° SE visible
17 Nov -0.5 19:49:52 10° WSW 19:50:18 13° WSW 19:50:18 13° WSW visible
18 Nov -2.2 17:25:56 10° SSW 17:28:43 24° SSE 17:31:11 12° E visible
18 Nov -2.5 19:01:49 10° WSW 19:04:06 38° SW 19:04:06 38° SW visible
